College Station, AR

7:23 AM CST on February 07, 2016 (GMT -0600)
Adams

Weather History for KLIT - January, 2014

Change the Weather History Date:

Sunday, January 5, 2014

  Actual Average Record
Temperature  
Mean Temperature 36 °F 41 °F  
Max Temperature 55 °F 49 °F 68 °F (2005)
Min Temperature 17 °F 33 °F 12 °F (2010)
Degree Days  
Heating Degree Days 29 24  
Month to date heating degree days 150 120  
Since 1 July heating degree days 1420 1312  
Cooling Degree Days 0 0  
Month to date cooling degree days 0 0  
Year to date cooling degree days 0 0  
Moisture  
Dew Point 31 °F    
Average Humidity 69    
Maximum Humidity 92    
Minimum Humidity 45    
Precipitation  
Precipitation 0.19 in 0.13 in 1.11 in (2005)
Month to date precipitation 0.23 0.63  
Year to date precipitation 0.23 0.63  
Snow  
Snow 0.00 in 0.00 in 1.00 in (1979)
Month to date snowfall 0.0 0.2  
Since 1 July snowfall 1.3 0.7  
Snow Depth 0.00 in    
Sea Level Pressure  
Sea Level Pressure 29.97 in    
Wind  
Wind Speed 17 mph (WNW)    
Max Wind Speed 29 mph    
Max Gust Speed 37 mph    
Visibility 8 miles    
Events Rain    
T = Trace of Precipitation, MM = Missing Value Source: NWS Daily Summary

Daily Weather History Graph

Daily Weather History Graph

Search for Another Location

Airport or City:

Trip Planner

Search our weather history database for the weather conditions in past years. The results will help you decide how hot, cold, wet, or windy it might be!

Date:

Astronomy

Jan. 05, 2014 Rise Set
Actual Time 7:16 AM CST 5:12 PM CST
Civil Twilight 6:48 AM CST 5:40 PM CST
Nautical Twilight 6:17 AM CST 6:11 PM CST
Astronomical Twilight 5:46 AM CST 6:41 PM CST
Moon 10:11 AM CST (1/5) 10:26 PM CST (1/5)
Length of Visible Light 10h 51m
Length of Day
9h 55m
Waxing Crescent, 25% of the Moon is Illuminated
Jan 5
Waxing Crescent
Jan 7
First Quarter
Jan 15
Full
Jan 23
Last Quarter
Jan 30
New

Hourly Weather History & Observations

Time (CST) Temp. Windchill Dew Point Humidity Pressure Visibility Wind Dir Wind Speed Gust Speed Precip Events Conditions
12:53 AM 50.0 °F - 41.0 °F 71% 29.88 in 10.0 mi South 5.8 mph - N/A   Overcast
1:29 AM 50.0 °F - 41.0 °F 71% 29.86 in 10.0 mi SE 5.8 mph - N/A   Overcast
1:53 AM 50.0 °F - 42.1 °F 74% 29.86 in 10.0 mi ESE 3.5 mph - N/A   Overcast
2:53 AM 55.0 °F - 44.1 °F 67% 29.83 in 10.0 mi South 16.1 mph 20.7 mph N/A   Overcast
3:17 AM 53.6 °F - 44.6 °F 72% 29.82 in 10.0 mi South 16.1 mph 20.7 mph N/A   Overcast
3:53 AM 54.0 °F - 44.1 °F 69% 29.81 in 10.0 mi South 10.4 mph - N/A   Overcast
4:53 AM 54.0 °F - 45.0 °F 72% 29.79 in 10.0 mi South 9.2 mph 17.3 mph N/A   Overcast
5:53 AM 54.0 °F - 46.0 °F 75% 29.76 in 10.0 mi South 12.7 mph 20.7 mph 0.00 in Rain Light Rain
6:53 AM 53.1 °F - 48.0 °F 83% 29.73 in 7.0 mi South 12.7 mph 25.3 mph 0.00 in Rain Light Rain
7:44 AM 53.6 °F - 48.2 °F 82% 29.71 in 3.0 mi South 18.4 mph 28.8 mph 0.00 in Rain Light Rain
7:53 AM 54.0 °F - 48.9 °F 83% 29.72 in 7.0 mi South 16.1 mph 24.2 mph 0.03 in Rain Light Rain
8:47 AM 53.6 °F - 50.0 °F 88% 29.76 in 1.5 mi WNW 13.8 mph - 0.06 in Rain Light Rain
8:53 AM 51.1 °F - 48.0 °F 89% 29.78 in 1.0 mi WNW 23.0 mph 27.6 mph 0.09 in Rain Light Rain
9:04 AM 44.6 °F 36.1 °F 42.8 °F 93% 29.78 in 2.0 mi NW 21.9 mph 32.2 mph 0.02 in Rain Light Rain
9:31 AM 42.8 °F 34.5 °F 39.2 °F 87% 29.80 in 6.0 mi WNW 18.4 mph 28.8 mph 0.04 in Rain Light Rain
9:53 AM 42.1 °F 33.3 °F 39.0 °F 89% 29.82 in 6.0 mi WNW 19.6 mph 29.9 mph 0.06 in Rain Light Rain
10:53 AM 39.0 °F 28.8 °F 37.0 °F 93% 29.87 in 10.0 mi WNW 21.9 mph 27.6 mph 0.01 in   Overcast
11:09 AM 37.4 °F 28.2 °F 35.6 °F 93% 29.87 in 10.0 mi WNW 16.1 mph 31.1 mph N/A   Overcast
11:53 AM 35.1 °F 24.1 °F 33.1 °F 92% 29.90 in 10.0 mi NW 19.6 mph 26.5 mph N/A   Overcast
12:53 PM 33.1 °F 21.5 °F 28.9 °F 85% 29.91 in 10.0 mi WNW 19.6 mph 27.6 mph N/A   Overcast
1:53 PM 32.0 °F 19.2 °F 25.0 °F 75% 29.96 in 10.0 mi NW 23.0 mph 31.1 mph N/A   Overcast
2:53 PM 30.9 °F 17.8 °F 21.0 °F 67% 30.01 in 10.0 mi NW 23.0 mph 29.9 mph N/A   Overcast
3:53 PM 28.9 °F 15.1 °F 18.0 °F 64% 30.09 in 10.0 mi WNW 23.0 mph 28.8 mph N/A   Overcast
4:33 PM 28.4 °F 15.1 °F 17.6 °F 64% 30.10 in 10.0 mi NW 20.7 mph 31.1 mph N/A   Overcast
4:53 PM 28.0 °F 13.9 °F 16.0 °F 61% 30.14 in 10.0 mi NW 23.0 mph 35.7 mph N/A   Overcast
5:53 PM 26.1 °F 12.7 °F 12.9 °F 58% 30.20 in 10.0 mi NNW 18.4 mph 29.9 mph N/A   Scattered Clouds
6:53 PM 25.0 °F 12.2 °F 12.9 °F 60% 30.26 in 10.0 mi NNW 16.1 mph 26.5 mph N/A   Scattered Clouds
7:53 PM 23.0 °F 11.1 °F 12.0 °F 63% 30.31 in 10.0 mi NNW 12.7 mph - N/A   Partly Cloudy
8:53 PM 21.9 °F 5.8 °F 10.0 °F 60% 30.37 in 10.0 mi NNW 23.0 mph 32.2 mph N/A   Partly Cloudy
9:53 PM 19.9 °F 3.2 °F 7.0 °F 57% 30.41 in 10.0 mi NNW 23.0 mph 32.2 mph N/A   Partly Cloudy
10:53 PM 19.0 °F 3.6 °F 1.9 °F 47% 30.44 in 10.0 mi NNW 18.4 mph 31.1 mph N/A   Clear
11:53 PM 17.1 °F 2.0 °F -0.9 °F 45% 30.48 in 10.0 mi NNW 16.1 mph - N/A   Partly Cloudy